Location: Asar Burnu
(36.5203°N, 30.5523°E)
Time: 10:32:46
(UTC+00:00)

Cosmos 1812 Rocket - Pass Details

Date: 04 August 2024
Orbit: 601 x 628 km, 82.5° (Epoch: 14 September)

Event Time Altitude Azimuth Distance (km) Brightness Sun altitude
Rises 19:31:34 0° 355° (N) 2,920 7.8 -25.6°
Reaches altitude 10° 19:33:50 10° 358° (N) 2,006 6.8 -25.9°
Enters shadow 19:37:16 50° 20° (NNE) 795 4.2 -26.3°
